Content
SEND FEEDBACK

Daily
Averages
Monthly
Summary
United States of America

JENNINGS, LOUISIANA


Home > North America > United States > Louisiana
Elevation: 25 feet     Latitude: 30 14N     Longitude: 092 40W

WEATHER
 
SELECT A DAY
Number of Records: 123,113;   Date Range: 1/3/95 - 9/18/14
 
SHARE

PRINT THIS DATA

[ ← Previous Day ]
WEATHER ALMANAC - JULY 1, 2014
[ Next Day → ]
[ °C ]   °F
Weather ElementAverageHighLow
Temperature80.9 °F89.6 °F (11:50 am)73.4 °F (6:00 am)
Dewpoint73.5 °F75.2 °F (7:45 am)71.6 °F (6:00 am)
Humidity79.4 %94 % (3:15 am)55 % (2:50 pm)
Barometer29.98 in30.02 in (9:55 am)29.95 in (3:15 am)
Wind Speed4.3 mph11.5 mph (4:50 pm)
Weather ElementAverage
Visibility9.1 mi
Wind DirectionESE (123 °)

Weather ElementTotal
Precipitation---
Cooling Degree Days16.5 (Base 65)
Growing Degree Days31.5 (Base 50)
Averaged from 30 records on July 1, 2014
WEATHER CONDITIONS BREAKOUT
WIND DIRECTION BREAKOUT
WEATHER BY HOUR - JULY 1, 2014
[ °C ]   °F
Local TimeTemperatureDewpointHumidityBarometerVisibilityWind DirectionWind SpeedGust SpeedPrecipitationEventsConditions
12:55 AM76.6 °F73.8 °F91 %29.99 in10.0 miCalmScattered Clouds
1:15 AM76.3 °F73.6 °F91 %29.98 in10.0 miSE (140°)4.6 mphScattered Clouds
1:35 AM76.6 °F74.1 °F92 %29.97 in7.0 miSSE (150°)4.6 mphScattered Clouds
1:55 AM76.6 °F74.3 °F92 %29.97 in7.0 miCalmScattered Clouds
2:15 AM76.1 °F73.8 °F92 %29.96 in7.0 miSSE (160°)3.5 mphScattered Clouds
2:35 AM75.6 °F73.4 °F93 %29.96 in7.0 miSSE (150°)4.6 mphScattered Clouds
2:55 AM75.9 °F73.6 °F92 %29.96 in7.0 miSE (140°)4.6 mphClear
3:15 AM75.4 °F73.4 °F94 %29.95 in7.0 miSSE (150°)5.8 mphClear
3:35 AM75.7 °F73.6 °F93 %29.95 in7.0 miSSE (150°)4.6 mphClear
4:15 AM75.6 °F73.6 °F94 %29.96 in5.0 miCalmClear
6:00 AM73.4 °F71.6 °F94 %29.99 in10.0 miCalmClear
6:45 AM78.8 °F71.6 °F78 %30.00 in10.0 miCalmScattered Clouds
7:45 AM80.6 °F75.2 °F84 %30.01 in10.0 miCalmScattered Clouds
9:55 AM84.2 °F73.4 °F70 %30.02 in10.0 miCalmMostly Cloudy
10:45 AM87.8 °F73.4 °F62 %30.02 in10.0 miSSW (200°)3.5 mphMostly Cloudy
11:50 AM89.6 °F73.4 °F59 %30.02 in10.0 miCalmMostly Cloudy
12:45 PM89.6 °F73.4 °F59 %30.01 in10.0 miSouth (170°)6.9 mphMostly Cloudy
2:50 PM89.6 °F71.6 °F55 %29.99 in10.0 miSouth (190°)8.1 mphScattered Clouds
4:50 PM89.6 °F71.6 °F55 %29.98 in10.0 miSSW (210°)11.5 mphScattered Clouds
5:50 PM89.6 °F71.6 °F55 %29.98 in10.0 miSSW (200°)11.5 mphPartly Cloudy
7:50 PM84.2 °F73.4 °F70 %29.97 in10.0 miSouth (190°)9.2 mphClear
8:50 PM82.4 °F73.4 °F74 %29.97 in10.0 miSouth (190°)6.9 mphClear
9:15 PM82.0 °F73.8 °F76 %29.97 in10.0 miSouth (180°)5.8 mphClear
9:35 PM81.5 °F74.3 °F79 %29.97 in10.0 miSouth (190°)5.8 mphClear
9:50 PM82.4 °F73.4 °F74 %29.97 in10.0 miSouth (190°)8.1 mphClear
9:55 PM79.0 °F74.5 °F86 %29.97 in10.0 miSSE (160°)4.6 mphClear
10:15 PM79.7 °F74.7 °F84 %29.99 in10.0 miSouth (190°)4.6 mphClear
10:35 PM80.8 °F74.8 °F82 %30.00 in10.0 miCalmClear
10:55 PM80.6 °F74.7 °F82 %29.99 in10.0 miSouth (190°)5.8 mphClear
11:15 PM81.0 °F74.7 °F81 %30.00 in10.0 miSSW (200°)5.8 mphClear
Hourly data recorded from KCWF, located miles away from Jennings, Louisiana







STORIES FROM OUR PARTNERS